| time (UTC) | temp C | wind direction | speed KPH | gust KPH | rain 1hr cm | rain 24hr cm | rain mn cm | humidity % | barometer mb |
| 20260510190042 | 28 | 0 | 0.0 | 3.2 | 0.00 | 0.00 | 0.00 | 36 | 1014.6 |
| 20260510184537 | 28 | 0 | 1.6 | 12.9 | 0.00 | 0.00 | 0.00 | 37 | 1014.8 |
| 20260510183043 | 28 | 0 | 1.6 | 3.2 | 0.00 | 0.00 | 0.00 | 38 | 1015.0 |
| 20260510181548 | 29 | 0 | 0.0 | 4.8 | 0.00 | 0.00 | 0.00 | 39 | 1015.1 |
| 20260510180043 | 28 | 260 | 0.0 | 3.2 | 0.00 | 0.00 | 0.00 | 43 | 1015.2 |
| 20260510174542 | 28 | 34 | 1.6 | 6.4 | 0.00 | 0.00 | 0.00 | 39 | 1015.2 |
| 20260510173039 | 27 | 112 | 1.6 | 6.4 | 0.00 | 0.00 | 0.00 | 39 | 1015.3 |
| 20260510171536 | 27 | 8 | 1.6 | 9.7 | 0.00 | 0.00 | 0.00 | 40 | 1015.3 |
| 20260510170042 | 28 | 76 | 0.0 | 3.2 | 0.00 | 0.00 | 0.00 | 39 | 1015.3 |
| 20260510164603 | 28 | 0 | 0.0 | 1.6 | 0.00 | 0.00 | 0.00 | 42 | 1015.6 |
| 20260510163044 | 27 | 341 | 1.6 | 8.0 | 0.00 | 0.00 | 0.00 | 40 | 1015.7 |
| 20260510161537 | 27 | 344 | 1.6 | 8.0 | 0.00 | 0.00 | 0.00 | 46 | 1015.7 |
| 20260510160036 | 27 | 179 | 0.0 | 4.8 | 0.00 | 0.00 | 0.00 | 46 | 1015.7 |
| 20260510154542 | 26 | 0 | 1.6 | 6.4 | 0.00 | 0.00 | 0.00 | 48 | 1015.9 |
| 20260510153047 | 25 | 0 | 0.0 | 6.4 | 0.00 | 0.00 | 0.00 | 50 | 1016.1 |
| 20260510151541 | 25 | 129 | 0.0 | 4.8 | 0.00 | 0.00 | 0.00 | 52 | 1016.2 |
| 20260510150045 | 23 | 102 | 0.0 | 3.2 | 0.00 | 0.00 | 0.00 | 54 | 1016.2 |
| 20260510144546 | 22 | 103 | 0.0 | 3.2 | 0.00 | 0.00 | 0.00 | 71 | 1016.0 |
| 20260510143037 | 21 | 0 | 0.0 | 1.6 | 0.00 | 0.00 | 0.00 | 69 | 1016.1 |
| 20260510141537 | 21 | 0 | 0.0 | 3.2 | 0.00 | 0.00 | 0.00 | 74 | 1016.0 |
| 20260510140037 | 20 | 0 | 0.0 | 4.8 | 0.00 | 0.00 | 0.00 | 79 | 1016.1 |
| 20260510134550 | 20 | 0 | 0.0 | 6.4 | 0.00 | 0.00 | 0.00 | 80 | 1016.0 |
| 20260510133037 | 18 | 0 | 0.0 | 4.8 | 0.00 | 0.00 | 0.00 | 91 | 1016.0 |
| 20260510131537 | 17 | 0 | 0.0 | 0.0 | 0.00 | 0.00 | 0.00 | 98 | 1015.9 |
| 20260510130037 | 16 | 0 | 0.0 | 0.0 | 0.00 | 0.00 | 0.00 | 99 | 1015.7 |
| 20260510124541 | 15 | 0 | 0.0 | 0.0 | 0.00 | 0.00 | 0.00 | 99 | 1015.5 |
| 20260510123041 | 14 | 0 | 0.0 | 0.0 | 0.00 | 0.00 | 0.00 | 98 | 1015.3 |
| 20260510121540 | 13 | 0 | 0.0 | 0.0 | 0.00 | 0.00 | 0.00 | 98 | 1015.3 |
| 20260510120038 | 13 | 0 | 0.0 | 0.0 | 0.00 | 0.00 | 0.00 | 98 | 1015.1 |
| 20260510114537 | 13 | 0 | 0.0 | 0.0 | 0.00 | 0.00 | 0.00 | 98 | 1015.0 |
| 20260510113036 | 13 | 0 | 0.0 | 0.0 | 0.00 | 0.00 | 0.00 | 98 | 1014.7 |
| 20260510111541 | 13 | 0 | 0.0 | 0.0 | 0.00 | 0.00 | 0.00 | 98 | 1014.4 |
| 20260510110041 | 13 | 0 | 0.0 | 0.0 | 0.00 | 0.00 | 0.00 | 98 | 1014.3 |
| 20260510104544 | 13 | 0 | 0.0 | 0.0 | 0.00 | 0.00 | 0.00 | 97 | 1013.9 |
| 20260510103043 | 13 | 0 | 0.0 | 0.0 | 0.00 | 0.00 | 0.00 | 98 | 1013.8 |
| 20260510101537 | 13 | 0 | 0.0 | 0.0 | 0.00 | 0.00 | 0.00 | 97 | 1013.5 |
| 20260510100053 | 13 | 0 | 0.0 | 0.0 | 0.00 | 0.00 | 0.00 | 98 | 1013.2 |
| 20260510094545 | 13 | 0 | 0.0 | 0.0 | 0.00 | 0.00 | 0.00 | 97 | 1013.2 |
| 20260510093041 | 13 | 0 | 0.0 | 0.0 | 0.00 | 0.00 | 0.00 | 97 | 1013.0 |
| 20260510091537 | 13 | 0 | 0.0 | 0.0 | 0.00 | 0.00 | 0.00 | 97 | 1012.8 |
| 20260510090041 | 13 | 0 | 0.0 | 0.0 | 0.00 | 0.00 | 0.00 | 97 | 1012.7 |
| 20260510084548 | 13 | 0 | 0.0 | 0.0 | 0.00 | 0.00 | 0.00 | 97 | 1012.6 |
| 20260510083044 | 13 | 0 | 0.0 | 0.0 | 0.00 | 0.00 | 0.00 | 97 | 1012.5 |
| 20260510081541 | 14 | 0 | 0.0 | 0.0 | 0.00 | 0.00 | 0.00 | 97 | 1012.5 |
| 20260510080043 | 14 | 0 | 0.0 | 0.0 | 0.00 | 0.00 | 0.00 | 97 | 1012.3 |
| 20260510074537 | 14 | 0 | 0.0 | 0.0 | 0.00 | 0.00 | 0.00 | 97 | 1012.4 |
| 20260510073044 | 14 | 0 | 0.0 | 0.0 | 0.00 | 0.00 | 0.00 | 97 | 1012.3 |
| 20260510071545 | 14 | 0 | 0.0 | 0.0 | 0.00 | 0.00 | 0.00 | 97 | 1012.2 |
| 20260510070044 | 13 | 0 | 0.0 | 0.0 | 0.00 | 0.00 | 0.00 | 97 | 1012.4 |
| 20260510064601 | 14 | 0 | 0.0 | 0.0 | 0.00 | 0.00 | 0.00 | 97 | 1012.4 |
| 20260510063040 | 14 | 0 | 0.0 | 0.0 | 0.00 | 0.00 | 0.00 | 97 | 1012.1 |
| 20260510061539 | 15 | 0 | 0.0 | 0.0 | 0.00 | 0.00 | 0.00 | 97 | 1011.9 |
| 20260510060043 | 15 | 0 | 0.0 | 0.0 | 0.00 | 0.00 | 0.00 | 97 | 1012.2 |
| 20260510054537 | 15 | 0 | 0.0 | 0.0 | 0.00 | 0.00 | 0.00 | 97 | 1012.5 |
| 20260510053043 | 15 | 0 | 0.0 | 0.0 | 0.00 | 0.00 | 0.00 | 97 | 1012.4 |
| 20260510051552 | 15 | 0 | 0.0 | 0.0 | 0.00 | 0.00 | 0.00 | 97 | 1012.7 |
| 20260510050039 | 15 | 0 | 0.0 | 0.0 | 0.00 | 0.00 | 0.00 | 97 | 1012.8 |
| 20260510044540 | 15 | 0 | 0.0 | 0.0 | 0.00 | 0.00 | 0.00 | 97 | 1012.8 |
| 20260510043045 | 15 | 0 | 0.0 | 0.0 | 0.00 | 0.00 | 0.00 | 97 | 1012.9 |
| 20260510041605 | 15 | 0 | 0.0 | 0.0 | 0.00 | 0.00 | 0.00 | 96 | 1012.8 |
| 20260510040045 | 15 | 0 | 0.0 | 0.0 | 0.00 | 0.00 | 0.00 | 96 | 1012.8 |
| 20260510034541 | 15 | 0 | 0.0 | 0.0 | 0.00 | 0.00 | 0.00 | 96 | 1012.7 |
| 20260510033037 | 15 | 0 | 0.0 | 0.0 | 0.00 | 0.00 | 0.00 | 96 | 1012.6 |
| 20260510031537 | 15 | 0 | 0.0 | 0.0 | 0.00 | 0.00 | 0.00 | 96 | 1012.6 |
| 20260510030037 | 15 | 0 | 0.0 | 0.0 | 0.00 | 0.00 | 0.00 | 96 | 1012.5 |
| 20260510024549 | 15 | 0 | 0.0 | 0.0 | 0.00 | 0.00 | 0.00 | 95 | 1012.6 |
| 20260510023038 | 15 | 0 | 0.0 | 0.0 | 0.00 | 0.00 | 0.00 | 95 | 1012.5 |
| 20260510021537 | 16 | 0 | 0.0 | 0.0 | 0.00 | 0.00 | 0.00 | 94 | 1012.5 |
| 20260510020042 | 16 | 0 | 0.0 | 0.0 | 0.00 | 0.00 | 0.00 | 94 | 1012.3 |
| 20260510014540 | 16 | 0 | 0.0 | 0.0 | 0.00 | 0.00 | 0.00 | 93 | 1012.1 |
| 20260510013039 | 17 | 0 | 0.0 | 0.0 | 0.00 | 0.00 | 0.00 | 92 | 1011.8 |
| 20260510011539 | 17 | 0 | 0.0 | 0.0 | 0.00 | 0.00 | 0.00 | 91 | 1011.5 |
| 20260510010058 | 17 | 0 | 0.0 | 0.0 | 0.00 | 0.00 | 0.00 | 90 | 1011.2 |
| 20260510004543 | 18 | 0 | 0.0 | 0.0 | 0.00 | 0.00 | 0.00 | 88 | 1011.3 |
| 20260510003038 | 18 | 0 | 0.0 | 0.0 | 0.00 | 0.00 | 0.00 | 88 | 1011.2 |
| 20260510001537 | 18 | 0 | 0.0 | 0.0 | 0.00 | 0.00 | 0.00 | 86 | 1011.1 |
| 20260510000041 | 19 | 0 | 0.0 | 0.0 | 0.00 | 0.00 | 0.00 | 86 | 1010.9 |
| 20260509234554 | 19 | 0 | 0.0 | 0.0 | 0.00 | 0.00 | 0.00 | 85 | 1010.6 |
| 20260509233042 | 20 | 0 | 0.0 | 0.0 | 0.00 | 0.00 | 0.00 | 84 | 1010.5 |
| 20260509231538 | 20 | 0 | 0.0 | 0.0 | 0.00 | 0.00 | 0.00 | 83 | 1010.4 |
| 20260509230038 | 21 | 0 | 0.0 | 0.0 | 0.00 | 0.00 | 0.00 | 82 | 1010.5 |
| 20260509224536 | 21 | 0 | 0.0 | 0.0 | 0.00 | 0.00 | 0.00 | 80 | 1010.2 |
| 20260509223037 | 21 | 0 | 0.0 | 0.0 | 0.00 | 0.00 | 0.00 | 80 | 1010.2 |
| 20260509221600 | 21 | 0 | 0.0 | 0.0 | 0.00 | 0.00 | 0.00 | 79 | 1010.2 |
| 20260509220057 | 21 | 0 | 0.0 | 0.0 | 0.00 | 0.00 | 0.00 | 78 | 1010.3 |
| 20260509214543 | 21 | 0 | 0.0 | 0.0 | 0.00 | 0.00 | 0.00 | 78 | 1010.3 |
| 20260509213038 | 21 | 0 | 0.0 | 0.0 | 0.00 | 0.00 | 0.00 | 79 | 1010.2 |
| 20260509211537 | 21 | 0 | 0.0 | 1.6 | 0.00 | 0.00 | 0.00 | 79 | 1010.1 |
| 20260509210037 | 22 | 0 | 0.0 | 1.6 | 0.00 | 0.00 | 0.00 | 78 | 1010.1 |
| 20260509204537 | 22 | 141 | 0.0 | 1.6 | 0.00 | 0.00 | 0.00 | 76 | 1010.1 |
| 20260509203044 | 21 | 0 | 0.0 | 3.2 | 0.00 | 0.00 | 0.00 | 76 | 1010.2 |
| 20260509201541 | 22 | 251 | 0.0 | 3.2 | 0.00 | 0.00 | 0.00 | 75 | 1010.2 |
| 20260509200044 | 22 | 157 | 0.0 | 3.2 | 0.00 | 0.00 | 0.00 | 77 | 1010.3 |
| 20260509194538 | 21 | 0 | 0.0 | 0.0 | 0.00 | 0.00 | 0.00 | 75 | 1010.4 |
| 20260509193044 | 21 | 0 | 0.0 | 0.0 | 0.00 | 0.00 | 0.00 | 75 | 1010.7 |
| 20260509191548 | 21 | 0 | 0.0 | 1.6 | 0.00 | 0.00 | 0.00 | 76 | 1010.8 |